Location: Bazinghen
(50.8246°N, 1.6616°E)
Time: 03:45:45
(UTC+00:00)

Cosmos 2208 Rocket - Pass Details

Date: 09 April 2020
Orbit: 754 x 806 km, 74.0° (Epoch: 06 June)

Event Time Altitude Azimuth Distance (km) Brightness Sun altitude
Rises 21:27:26 0° 333° (NNW) 3,225 8.6 -23.1°
Reaches altitude 10° 21:29:49 10° 331° (NNW) 2,299 7.5 -23.4°
Maximum altitude 21:34:58 65° 251° (WSW) 840 4.2 -23.9°
Enters shadow 21:36:01 52° 198° (SSW) 949 4.2 -24.0°
